Year,Month,Day,Hour,Minute,Value (Times are PST for temperature in C)
2021,06,28,00,00,28.80
2021,06,28,00,01,28.80
2021,06,28,00,02,28.80
2021,06,28,00,03,28.70
2021,06,28,00,04,28.70
2021,06,28,00,05,28.70
2021,06,28,00,06,28.70
2021,06,28,00,07,28.80
2021,06,28,00,08,28.80
2021,06,28,00,09,28.80
2021,06,28,00,10,28.80
2021,06,28,00,11,28.80
2021,06,28,00,12,28.80
2021,06,28,00,13,28.80
2021,06,28,00,14,28.90
2021,06,28,00,15,28.90
2021,06,28,00,16,28.90
2021,06,28,00,17,28.90
2021,06,28,00,18,28.90
2021,06,28,00,19,28.90
2021,06,28,00,20,28.80
2021,06,28,00,21,28.80
2021,06,28,00,22,28.80
2021,06,28,00,23,28.70
2021,06,28,00,24,28.70
2021,06,28,00,25,28.70
2021,06,28,00,26,28.70
2021,06,28,00,27,28.70
2021,06,28,00,28,28.70
2021,06,28,00,29,28.70
2021,06,28,00,30,28.70
2021,06,28,00,31,28.70
2021,06,28,00,32,28.70
2021,06,28,00,33,28.70
2021,06,28,00,34,28.60
2021,06,28,00,35,28.60
2021,06,28,00,36,28.60
2021,06,28,00,37,28.60
2021,06,28,00,38,28.60
2021,06,28,00,39,28.60
2021,06,28,00,40,28.60
2021,06,28,00,41,28.40
2021,06,28,00,42,28.40
2021,06,28,00,43,28.40
2021,06,28,00,44,28.40
2021,06,28,00,45,28.40
2021,06,28,00,46,28.40
2021,06,28,00,47,28.40
2021,06,28,00,48,28.40
2021,06,28,00,49,28.40
2021,06,28,00,50,28.40
2021,06,28,00,51,28.50
2021,06,28,00,52,28.60
2021,06,28,00,53,28.60
2021,06,28,00,54,28.60
2021,06,28,00,55,28.60
2021,06,28,00,56,28.60
2021,06,28,00,57,28.50
2021,06,28,00,58,28.40
2021,06,28,00,59,28.40
2021,06,28,01,00,28.40
2021,06,28,01,01,28.40
2021,06,28,01,02,28.30
2021,06,28,01,03,28.30
2021,06,28,01,04,28.30
2021,06,28,01,05,28.20
2021,06,28,01,06,28.20
2021,06,28,01,07,28.10
2021,06,28,01,08,28.10
2021,06,28,01,09,28.00
2021,06,28,01,10,27.90
2021,06,28,01,11,27.80
2021,06,28,01,12,27.70
2021,06,28,01,13,27.70
2021,06,28,01,14,27.60
2021,06,28,01,15,27.50
2021,06,28,01,16,27.40
2021,06,28,01,17,27.30
2021,06,28,01,18,27.30
2021,06,28,01,19,27.30
2021,06,28,01,20,27.30
2021,06,28,01,21,27.30
2021,06,28,01,22,27.30
2021,06,28,01,23,27.20
2021,06,28,01,24,27.20
2021,06,28,01,25,27.20
2021,06,28,01,26,27.10
2021,06,28,01,27,27.10
2021,06,28,01,28,27.00
2021,06,28,01,29,26.90
2021,06,28,01,30,26.90
2021,06,28,01,31,26.80
2021,06,28,01,32,26.80
2021,06,28,01,33,26.70
2021,06,28,01,34,26.70
2021,06,28,01,35,26.70
2021,06,28,01,36,26.60
2021,06,28,01,37,26.60
2021,06,28,01,38,26.60
2021,06,28,01,39,26.60
2021,06,28,01,40,26.50
2021,06,28,01,41,26.40
2021,06,28,01,42,26.40
2021,06,28,01,43,26.30
2021,06,28,01,44,26.30
2021,06,28,01,45,26.20
2021,06,28,01,46,26.00
2021,06,28,01,47,25.90
2021,06,28,01,48,25.80
2021,06,28,01,49,25.70
2021,06,28,01,50,25.60
2021,06,28,01,51,25.50
2021,06,28,01,52,25.40
2021,06,28,01,53,25.30
2021,06,28,01,54,25.20
2021,06,28,01,55,25.20
2021,06,28,01,56,25.10
2021,06,28,01,57,25.00
2021,06,28,01,58,25.00
2021,06,28,01,59,24.90
2021,06,28,02,00,24.90
2021,06,28,02,01,24.90
2021,06,28,02,02,24.80
2021,06,28,02,03,24.80
2021,06,28,02,04,24.80
2021,06,28,02,05,24.70
2021,06,28,02,06,24.70
2021,06,28,02,07,24.70
2021,06,28,02,08,24.70
2021,06,28,02,09,24.80
2021,06,28,02,10,24.80
2021,06,28,02,11,24.80
2021,06,28,02,12,24.80
2021,06,28,02,13,24.80
2021,06,28,02,14,24.80
2021,06,28,02,15,24.80
2021,06,28,02,16,24.80
2021,06,28,02,17,24.80
2021,06,28,02,18,24.90
2021,06,28,02,19,24.80
2021,06,28,02,20,24.80
2021,06,28,02,21,24.80
2021,06,28,02,22,24.80
2021,06,28,02,23,24.80
2021,06,28,02,24,24.80
2021,06,28,02,25,24.80
2021,06,28,02,26,24.80
2021,06,28,02,27,24.80
2021,06,28,02,28,24.80
2021,06,28,02,29,24.80
2021,06,28,02,30,24.70
2021,06,28,02,31,24.70
2021,06,28,02,32,24.70
2021,06,28,02,33,24.70
2021,06,28,02,34,24.70
2021,06,28,02,35,24.70
2021,06,28,02,36,24.70
2021,06,28,02,37,24.60
2021,06,28,02,38,24.60
2021,06,28,02,39,24.60
2021,06,28,02,40,24.60
2021,06,28,02,41,24.60
2021,06,28,02,42,24.50
2021,06,28,02,43,24.50
2021,06,28,02,44,24.50
2021,06,28,02,45,24.40
2021,06,28,02,46,24.40
2021,06,28,02,47,24.40
2021,06,28,02,48,24.40
2021,06,28,02,49,24.40
2021,06,28,02,50,24.40
2021,06,28,02,51,24.40
2021,06,28,02,52,24.40
2021,06,28,02,53,24.40
2021,06,28,02,54,24.40
2021,06,28,02,55,24.50
2021,06,28,02,56,24.50
2021,06,28,02,57,24.50
2021,06,28,02,58,24.50
2021,06,28,02,59,24.60
2021,06,28,03,00,24.60
2021,06,28,03,01,24.60
2021,06,28,03,02,24.60
2021,06,28,03,03,24.60
2021,06,28,03,04,24.60
2021,06,28,03,05,24.60
2021,06,28,03,06,24.60
2021,06,28,03,07,24.60
2021,06,28,03,08,24.70
2021,06,28,03,09,24.70
2021,06,28,03,10,24.70
2021,06,28,03,11,24.70
2021,06,28,03,12,24.70
2021,06,28,03,13,24.80
2021,06,28,03,14,24.80
2021,06,28,03,15,24.80
2021,06,28,03,16,24.80
2021,06,28,03,17,24.80
2021,06,28,03,18,24.80
2021,06,28,03,19,24.80
2021,06,28,03,20,24.80
2021,06,28,03,21,24.80
2021,06,28,03,22,24.80
2021,06,28,03,23,24.70
2021,06,28,03,24,24.70
2021,06,28,03,25,24.70
2021,06,28,03,26,24.70
2021,06,28,03,27,24.70
2021,06,28,03,28,24.70
2021,06,28,03,29,24.70
2021,06,28,03,30,24.60
2021,06,28,03,31,24.60
2021,06,28,03,32,24.60
2021,06,28,03,33,24.60
2021,06,28,03,34,24.60
2021,06,28,03,35,24.60
2021,06,28,03,36,24.60
2021,06,28,03,37,24.60
2021,06,28,03,38,24.60
2021,06,28,03,39,24.60
2021,06,28,03,40,24.60
2021,06,28,03,41,24.60
2021,06,28,03,42,24.70
2021,06,28,03,43,24.70
2021,06,28,03,44,24.80
2021,06,28,03,45,24.90
2021,06,28,03,46,25.00
2021,06,28,03,47,25.00
2021,06,28,03,48,25.10
2021,06,28,03,49,25.20
2021,06,28,03,50,25.30
2021,06,28,03,51,25.30
2021,06,28,03,52,25.40
2021,06,28,03,53,25.50
2021,06,28,03,54,25.50
2021,06,28,03,55,25.50
2021,06,28,03,56,25.60
2021,06,28,03,57,25.60
2021,06,28,03,58,25.60
2021,06,28,03,59,25.60
2021,06,28,04,00,25.70
2021,06,28,04,01,25.70
2021,06,28,04,02,25.70
2021,06,28,04,03,25.70
2021,06,28,04,04,25.70
2021,06,28,04,05,25.70
2021,06,28,04,06,25.60
2021,06,28,04,07,25.60
2021,06,28,04,08,25.50
2021,06,28,04,09,25.40
2021,06,28,04,10,25.40
2021,06,28,04,11,25.30
2021,06,28,04,12,25.30
2021,06,28,04,13,25.20
2021,06,28,04,14,25.20
2021,06,28,04,15,25.20
2021,06,28,04,16,25.10
2021,06,28,04,17,25.00
2021,06,28,04,18,24.90
2021,06,28,04,19,24.80
2021,06,28,04,20,24.70
2021,06,28,04,21,24.60
2021,06,28,04,22,24.50
2021,06,28,04,23,24.40
2021,06,28,04,24,24.30
2021,06,28,04,25,24.10
2021,06,28,04,26,24.00
2021,06,28,04,27,23.90
2021,06,28,04,28,23.80
2021,06,28,04,29,23.80
2021,06,28,04,30,23.70
2021,06,28,04,31,23.70
2021,06,28,04,32,23.70
2021,06,28,04,33,23.60
2021,06,28,04,34,23.60
2021,06,28,04,35,23.60
2021,06,28,04,36,23.50
2021,06,28,04,37,23.40
2021,06,28,04,38,23.40
2021,06,28,04,39,23.30
2021,06,28,04,40,23.30
2021,06,28,04,41,23.30
2021,06,28,04,42,23.30
2021,06,28,04,43,23.30
2021,06,28,04,44,23.30
2021,06,28,04,45,23.20
2021,06,28,04,46,23.20
2021,06,28,04,47,23.20
2021,06,28,04,48,23.10
2021,06,28,04,49,23.10
2021,06,28,04,50,23.10
2021,06,28,04,51,22.90
2021,06,28,04,52,22.90
2021,06,28,04,53,22.90
2021,06,28,04,54,22.90
2021,06,28,04,55,22.90
2021,06,28,04,56,22.90
2021,06,28,04,57,22.90
2021,06,28,04,58,22.90
2021,06,28,04,59,22.80
2021,06,28,05,00,22.80
2021,06,28,05,01,22.70
2021,06,28,05,02,22.70
2021,06,28,05,03,22.70
2021,06,28,05,04,22.70
2021,06,28,05,05,22.60
2021,06,28,05,06,22.60
2021,06,28,05,07,22.60
2021,06,28,05,08,22.60
2021,06,28,05,09,22.60
2021,06,28,05,10,22.60
2021,06,28,05,11,22.60
2021,06,28,05,12,22.60
2021,06,28,05,13,22.60
2021,06,28,05,14,22.60
2021,06,28,05,15,22.60
2021,06,28,05,16,22.60
2021,06,28,05,17,22.50
2021,06,28,05,18,22.50
2021,06,28,05,19,22.50
2021,06,28,05,20,22.50
2021,06,28,05,21,22.50
2021,06,28,05,22,22.40
2021,06,28,05,23,22.40
2021,06,28,05,24,22.40
2021,06,28,05,25,22.40
2021,06,28,05,26,22.40
2021,06,28,05,27,22.40
2021,06,28,05,28,22.40
2021,06,28,05,29,22.40
2021,06,28,05,30,22.40
2021,06,28,05,31,22.40
2021,06,28,05,32,22.50
2021,06,28,05,33,22.50
2021,06,28,05,34,22.60
2021,06,28,05,35,22.60
2021,06,28,05,36,22.70
2021,06,28,05,37,22.80
2021,06,28,05,38,22.80
2021,06,28,05,39,22.80
2021,06,28,05,40,22.90
2021,06,28,05,41,22.90
2021,06,28,05,42,22.90
2021,06,28,05,43,22.90
2021,06,28,05,44,22.90
2021,06,28,05,45,22.90
2021,06,28,05,46,22.90
2021,06,28,05,47,22.90
2021,06,28,05,48,22.90
2021,06,28,05,49,22.90
2021,06,28,05,50,22.90
2021,06,28,05,51,22.90
2021,06,28,05,52,22.90
2021,06,28,05,53,22.90
2021,06,28,05,54,23.00
2021,06,28,05,55,23.10
2021,06,28,05,56,23.10
2021,06,28,05,57,23.20
2021,06,28,05,58,23.30
2021,06,28,05,59,23.30
2021,06,28,06,00,23.40
2021,06,28,06,01,23.50
2021,06,28,06,02,23.60
2021,06,28,06,03,23.70
2021,06,28,06,04,23.90
2021,06,28,06,05,24.00
2021,06,28,06,06,24.10
2021,06,28,06,07,24.20
2021,06,28,06,08,24.40
2021,06,28,06,09,24.50
2021,06,28,06,10,24.60
2021,06,28,06,11,24.70
2021,06,28,06,12,24.80
2021,06,28,06,13,24.90
2021,06,28,06,14,24.90
2021,06,28,06,15,24.90
2021,06,28,06,16,24.90
2021,06,28,06,17,24.90
2021,06,28,06,18,24.80
2021,06,28,06,19,24.80
2021,06,28,06,20,24.80
2021,06,28,06,21,24.80
2021,06,28,06,22,24.80
2021,06,28,06,23,24.90
2021,06,28,06,24,24.90
2021,06,28,06,25,25.00
2021,06,28,06,26,25.00
2021,06,28,06,27,25.10
2021,06,28,06,28,25.20
2021,06,28,06,29,25.20
2021,06,28,06,30,25.20
2021,06,28,06,31,25.30
2021,06,28,06,32,25.30
2021,06,28,06,33,25.30
2021,06,28,06,34,25.40
2021,06,28,06,35,25.40
2021,06,28,06,36,25.40
2021,06,28,06,37,25.40
2021,06,28,06,38,25.50
2021,06,28,06,39,25.50
2021,06,28,06,40,25.60
2021,06,28,06,41,25.60
2021,06,28,06,42,25.60
2021,06,28,06,43,25.70
2021,06,28,06,44,25.70
2021,06,28,06,45,25.70
2021,06,28,06,46,25.70
2021,06,28,06,47,25.80
2021,06,28,06,48,25.80
2021,06,28,06,49,25.70
2021,06,28,06,50,25.70
2021,06,28,06,51,25.70
2021,06,28,06,52,25.70
2021,06,28,06,53,25.70
2021,06,28,06,54,25.70
2021,06,28,06,55,25.70
2021,06,28,06,56,25.70
2021,06,28,06,57,25.70
2021,06,28,06,58,25.80
2021,06,28,06,59,25.80
2021,06,28,07,00,25.90
2021,06,28,07,01,25.90
2021,06,28,07,02,26.00
2021,06,28,07,03,26.10
2021,06,28,07,04,26.10
2021,06,28,07,05,26.20
2021,06,28,07,06,26.20
2021,06,28,07,07,26.30
2021,06,28,07,08,26.30
2021,06,28,07,09,26.40
2021,06,28,07,10,26.40
2021,06,28,07,11,26.50
2021,06,28,07,12,26.60
2021,06,28,07,13,26.60
2021,06,28,07,14,26.60
2021,06,28,07,15,26.60
2021,06,28,07,16,26.60
2021,06,28,07,17,26.60
2021,06,28,07,18,26.60
2021,06,28,07,19,26.60
2021,06,28,07,20,26.60
2021,06,28,07,21,26.60
2021,06,28,07,22,26.70
2021,06,28,07,23,26.70
2021,06,28,07,24,26.70
2021,06,28,07,25,26.70
2021,06,28,07,26,26.70
2021,06,28,07,27,26.80
2021,06,28,07,28,26.80
2021,06,28,07,29,26.80
2021,06,28,07,30,26.80
2021,06,28,07,31,26.80
2021,06,28,07,32,26.80
2021,06,28,07,33,26.80
2021,06,28,07,34,26.80
2021,06,28,07,35,26.90
2021,06,28,07,36,26.90
2021,06,28,07,37,26.90
2021,06,28,07,38,26.90
2021,06,28,07,39,27.00
2021,06,28,07,40,27.10
2021,06,28,07,41,27.10
2021,06,28,07,42,27.10
2021,06,28,07,43,27.20
2021,06,28,07,44,27.20
2021,06,28,07,45,27.20
2021,06,28,07,46,27.20
2021,06,28,07,47,27.30
2021,06,28,07,48,27.30
2021,06,28,07,49,27.30
2021,06,28,07,50,27.30
2021,06,28,07,51,27.30
2021,06,28,07,52,27.30
2021,06,28,07,53,27.30
2021,06,28,07,54,27.30
2021,06,28,07,55,27.30
2021,06,28,07,56,27.30
2021,06,28,07,57,27.30
2021,06,28,07,58,27.30
2021,06,28,07,59,27.40
2021,06,28,08,00,27.40
2021,06,28,08,01,27.50
2021,06,28,08,02,27.60
2021,06,28,08,03,27.70
2021,06,28,08,04,27.70
2021,06,28,08,05,27.80
2021,06,28,08,06,27.80
2021,06,28,08,07,27.90
2021,06,28,08,08,27.90
2021,06,28,08,09,27.90
2021,06,28,08,10,27.80
2021,06,28,08,11,27.80
2021,06,28,08,12,27.80
2021,06,28,08,13,27.70
2021,06,28,08,14,27.70
2021,06,28,08,15,27.80
2021,06,28,08,16,27.80
2021,06,28,08,17,27.80
2021,06,28,08,18,27.90
2021,06,28,08,19,27.90
2021,06,28,08,20,27.90
2021,06,28,08,21,28.00
2021,06,28,08,22,28.00
2021,06,28,08,23,28.00
2021,06,28,08,24,28.10
2021,06,28,08,25,28.10
2021,06,28,08,26,28.10
2021,06,28,08,27,28.20
2021,06,28,08,28,28.30
2021,06,28,08,29,28.30
2021,06,28,08,30,28.40
2021,06,28,08,31,28.40
2021,06,28,08,32,28.40
2021,06,28,08,33,28.50
2021,06,28,08,34,28.60
2021,06,28,08,35,28.60
2021,06,28,08,36,28.60
2021,06,28,08,37,28.60
2021,06,28,08,38,28.70
2021,06,28,08,39,28.70
2021,06,28,08,40,28.70
2021,06,28,08,41,28.70
2021,06,28,08,42,28.70
2021,06,28,08,43,28.70
2021,06,28,08,44,28.70
2021,06,28,08,45,28.70
2021,06,28,08,46,28.60
2021,06,28,08,47,28.60
2021,06,28,08,48,28.60
2021,06,28,08,49,28.50
2021,06,28,08,50,28.40
2021,06,28,08,51,28.40
2021,06,28,08,52,28.40
2021,06,28,08,53,28.40
2021,06,28,08,54,28.40
2021,06,28,08,55,28.40
2021,06,28,08,56,28.40
2021,06,28,08,57,28.40
2021,06,28,08,58,28.40
2021,06,28,08,59,28.40
2021,06,28,09,00,28.50
2021,06,28,09,01,28.60
2021,06,28,09,02,28.60
2021,06,28,09,03,28.60
2021,06,28,09,04,28.60
2021,06,28,09,05,28.60
2021,06,28,09,06,28.70
2021,06,28,09,07,28.70
2021,06,28,09,08,28.70
2021,06,28,09,09,28.70
2021,06,28,09,10,28.70
2021,06,28,09,11,28.70
2021,06,28,09,12,28.70
2021,06,28,09,13,28.70
2021,06,28,09,14,28.80
2021,06,28,09,15,28.80
2021,06,28,09,16,28.90
2021,06,28,09,17,28.90
2021,06,28,09,18,28.90
2021,06,28,09,19,28.90
2021,06,28,09,20,29.00
2021,06,28,09,21,29.10
2021,06,28,09,22,29.20
2021,06,28,09,23,29.30
2021,06,28,09,24,29.40
2021,06,28,09,25,29.50
2021,06,28,09,26,29.60
2021,06,28,09,27,29.60
2021,06,28,09,28,29.70
2021,06,28,09,29,29.70
2021,06,28,09,30,29.70
2021,06,28,09,31,29.80
2021,06,28,09,32,29.80
2021,06,28,09,33,29.80
2021,06,28,09,34,29.80
2021,06,28,09,35,29.80
2021,06,28,09,36,29.90
2021,06,28,09,37,29.90
2021,06,28,09,38,29.90
2021,06,28,09,39,29.90
2021,06,28,09,40,29.90
2021,06,28,09,41,29.90
2021,06,28,09,42,29.90
2021,06,28,09,43,29.90
2021,06,28,09,44,29.90
2021,06,28,09,45,29.90
2021,06,28,09,46,29.90
2021,06,28,09,47,30.00
2021,06,28,09,48,30.10
2021,06,28,09,49,30.20
2021,06,28,09,50,30.20
2021,06,28,09,51,30.30
2021,06,28,09,52,30.30
2021,06,28,09,53,30.30
2021,06,28,09,54,30.30
2021,06,28,09,55,30.40
2021,06,28,09,56,30.40
2021,06,28,09,57,30.40
2021,06,28,09,58,30.40
2021,06,28,09,59,30.40
2021,06,28,10,00,30.40
2021,06,28,10,01,30.30
2021,06,28,10,02,30.30
2021,06,28,10,03,30.30
2021,06,28,10,04,30.30
2021,06,28,10,05,30.30
2021,06,28,10,06,30.30
2021,06,28,10,07,30.30
2021,06,28,10,08,30.20
2021,06,28,10,09,30.20
2021,06,28,10,10,30.20
2021,06,28,10,11,30.20
2021,06,28,10,12,30.20
2021,06,28,10,13,30.30
2021,06,28,10,14,30.30
2021,06,28,10,15,30.30
2021,06,28,10,16,30.30
2021,06,28,10,17,30.30
2021,06,28,10,18,30.40
2021,06,28,10,19,30.40
2021,06,28,10,20,30.60
2021,06,28,10,21,30.60
2021,06,28,10,22,30.60
2021,06,28,10,23,30.40
2021,06,28,10,24,30.40
2021,06,28,10,25,30.30
2021,06,28,10,26,30.30
2021,06,28,10,27,30.30
2021,06,28,10,28,30.20
2021,06,28,10,29,30.20
2021,06,28,10,30,30.20
2021,06,28,10,31,30.10
2021,06,28,10,32,30.10
2021,06,28,10,33,30.00
2021,06,28,10,34,29.90
2021,06,28,10,35,29.80
2021,06,28,10,36,29.70
2021,06,28,10,37,29.70
2021,06,28,10,38,29.70
2021,06,28,10,39,29.70
2021,06,28,10,40,29.60
2021,06,28,10,41,29.60
2021,06,28,10,42,29.60
2021,06,28,10,43,29.60
2021,06,28,10,44,29.60
2021,06,28,10,45,29.60
2021,06,28,10,46,29.60
2021,06,28,10,47,29.60
2021,06,28,10,48,29.60
2021,06,28,10,49,29.70
2021,06,28,10,50,29.70
2021,06,28,10,51,29.70
2021,06,28,10,52,29.70
2021,06,28,10,53,29.70
2021,06,28,10,54,29.70
2021,06,28,10,55,29.70
2021,06,28,10,56,29.70
2021,06,28,10,57,29.70
2021,06,28,10,58,29.70
2021,06,28,10,59,29.60
2021,06,28,11,00,29.60
2021,06,28,11,01,29.60
2021,06,28,11,02,29.70
2021,06,28,11,03,29.70
2021,06,28,11,04,29.70
2021,06,28,11,05,29.80
2021,06,28,11,06,29.90
2021,06,28,11,07,29.90
2021,06,28,11,08,29.90
2021,06,28,11,09,29.90
2021,06,28,11,10,29.90
2021,06,28,11,11,29.90
2021,06,28,11,12,29.90
2021,06,28,11,13,30.00
2021,06,28,11,14,30.10
2021,06,28,11,15,30.20
2021,06,28,11,16,30.20
2021,06,28,11,17,30.30
2021,06,28,11,18,30.30
2021,06,28,11,19,30.30
2021,06,28,11,20,30.40
2021,06,28,11,21,30.50
2021,06,28,11,22,30.60
2021,06,28,11,23,30.70
2021,06,28,11,24,30.80
2021,06,28,11,25,30.80
2021,06,28,11,26,30.90
2021,06,28,11,27,30.90
2021,06,28,11,28,30.90
2021,06,28,11,29,30.90
2021,06,28,11,30,30.90
2021,06,28,11,31,30.90
2021,06,28,11,32,30.90
2021,06,28,11,33,30.90
2021,06,28,11,34,30.90
2021,06,28,11,35,30.80
2021,06,28,11,36,30.70
2021,06,28,11,37,30.70
2021,06,28,11,38,30.60
2021,06,28,11,39,30.60
2021,06,28,11,40,30.60
2021,06,28,11,41,30.70
2021,06,28,11,42,30.70
2021,06,28,11,43,30.70
2021,06,28,11,44,30.80
2021,06,28,11,45,30.90
2021,06,28,11,46,30.90
2021,06,28,11,47,31.00
2021,06,28,11,48,30.90
2021,06,28,11,49,30.90
2021,06,28,11,50,30.80
2021,06,28,11,51,30.80
2021,06,28,11,52,30.70
2021,06,28,11,53,30.70
2021,06,28,11,54,30.70
2021,06,28,11,55,30.70
2021,06,28,11,56,30.80
2021,06,28,11,57,30.90
2021,06,28,11,58,31.00
2021,06,28,11,59,31.10
2021,06,28,12,00,31.20
2021,06,28,12,01,31.30
2021,06,28,12,02,31.30
2021,06,28,12,03,31.40
2021,06,28,12,04,31.40
2021,06,28,12,05,31.40
2021,06,28,12,06,31.40
2021,06,28,12,07,31.40
2021,06,28,12,08,31.40
2021,06,28,12,09,31.40
2021,06,28,12,10,31.50
2021,06,28,12,11,31.60
2021,06,28,12,12,31.60
2021,06,28,12,13,31.60
2021,06,28,12,14,31.70
2021,06,28,12,15,31.80
2021,06,28,12,16,31.80
2021,06,28,12,17,31.90
2021,06,28,12,18,32.00
2021,06,28,12,19,32.10
2021,06,28,12,20,32.20
2021,06,28,12,21,32.30
2021,06,28,12,22,32.40
2021,06,28,12,23,32.50
2021,06,28,12,24,32.60
2021,06,28,12,25,32.60
2021,06,28,12,26,32.70
2021,06,28,12,27,32.80
2021,06,28,12,28,32.80
2021,06,28,12,29,32.80
2021,06,28,12,30,32.80
2021,06,28,12,31,32.80
2021,06,28,12,32,32.80
2021,06,28,12,33,32.80
2021,06,28,12,34,32.80
2021,06,28,12,35,32.80
2021,06,28,12,36,32.80
2021,06,28,12,37,32.80
2021,06,28,12,38,32.80
2021,06,28,12,39,32.80
2021,06,28,12,40,32.80
2021,06,28,12,41,32.90
2021,06,28,12,42,32.90
2021,06,28,12,43,33.00
2021,06,28,12,44,33.00
2021,06,28,12,45,33.00
2021,06,28,12,46,33.00
2021,06,28,12,47,33.00
2021,06,28,12,48,33.00
2021,06,28,12,49,33.00
2021,06,28,12,50,33.10
2021,06,28,12,51,33.10
2021,06,28,12,52,33.10
2021,06,28,12,53,33.10
2021,06,28,12,54,33.10
2021,06,28,12,55,33.20
2021,06,28,12,56,33.10
2021,06,28,12,57,33.10
2021,06,28,12,58,33.20
2021,06,28,12,59,33.20
2021,06,28,13,00,33.20
2021,06,28,13,01,33.20
2021,06,28,13,02,33.20
2021,06,28,13,03,33.40
2021,06,28,13,04,33.40
2021,06,28,13,05,33.50
2021,06,28,13,06,33.60
2021,06,28,13,07,33.60
2021,06,28,13,08,33.60
2021,06,28,13,09,33.60
2021,06,28,13,10,33.60
2021,06,28,13,11,33.60
2021,06,28,13,12,33.60
2021,06,28,13,13,33.60
2021,06,28,13,14,33.70
2021,06,28,13,15,33.70
2021,06,28,13,16,33.70
2021,06,28,13,17,33.80
2021,06,28,13,18,33.80
2021,06,28,13,19,33.80
2021,06,28,13,20,33.80
2021,06,28,13,21,33.80
2021,06,28,13,22,33.80
2021,06,28,13,23,33.90
2021,06,28,13,24,34.00
2021,06,28,13,25,34.00
2021,06,28,13,26,34.00
2021,06,28,13,27,34.00
2021,06,28,13,28,34.00
2021,06,28,13,29,34.00
2021,06,28,13,30,33.90
2021,06,28,13,31,33.80
2021,06,28,13,32,33.80
2021,06,28,13,33,33.80
2021,06,28,13,34,33.80
2021,06,28,13,35,33.80
2021,06,28,13,36,33.90
2021,06,28,13,37,34.00
2021,06,28,13,38,34.00
2021,06,28,13,39,34.10
2021,06,28,13,40,34.10
2021,06,28,13,41,34.10
2021,06,28,13,42,34.20
2021,06,28,13,43,34.20
2021,06,28,13,44,34.20
2021,06,28,13,45,34.20
2021,06,28,13,46,34.20
2021,06,28,13,47,34.20
2021,06,28,13,48,34.20
2021,06,28,13,49,34.30
2021,06,28,13,50,34.30
2021,06,28,13,51,34.20
2021,06,28,13,52,34.10
2021,06,28,13,53,34.10
2021,06,28,13,54,34.10
2021,06,28,13,55,34.20
2021,06,28,13,56,34.20
2021,06,28,13,57,34.20
2021,06,28,13,58,34.30
2021,06,28,13,59,34.30
2021,06,28,14,00,34.40
2021,06,28,14,01,34.50
2021,06,28,14,02,34.60
2021,06,28,14,03,34.70
2021,06,28,14,04,34.70
2021,06,28,14,05,34.70
2021,06,28,14,06,34.80
2021,06,28,14,07,34.80
2021,06,28,14,08,34.80
2021,06,28,14,09,34.80
2021,06,28,14,10,34.80
2021,06,28,14,11,34.70
2021,06,28,14,12,34.60
2021,06,28,14,13,34.60
2021,06,28,14,14,34.50
2021,06,28,14,15,34.40
2021,06,28,14,16,34.30
2021,06,28,14,17,34.30
2021,06,28,14,18,34.40
2021,06,28,14,19,34.40
2021,06,28,14,20,34.40
2021,06,28,14,21,34.40
2021,06,28,14,22,34.40
2021,06,28,14,23,34.30
2021,06,28,14,24,34.30
2021,06,28,14,25,34.30
2021,06,28,14,26,34.30
2021,06,28,14,27,34.40
2021,06,28,14,28,34.40
2021,06,28,14,29,34.50
2021,06,28,14,30,34.60
2021,06,28,14,31,34.60
2021,06,28,14,32,34.60
2021,06,28,14,33,34.60
2021,06,28,14,34,34.60
2021,06,28,14,35,34.60
2021,06,28,14,36,34.60
2021,06,28,14,37,34.60
2021,06,28,14,38,34.60
2021,06,28,14,39,34.60
2021,06,28,14,40,34.60
2021,06,28,14,41,34.60
2021,06,28,14,42,34.60
2021,06,28,14,43,34.60
2021,06,28,14,44,34.60
2021,06,28,14,45,34.70
2021,06,28,14,46,34.70
2021,06,28,14,47,34.70
2021,06,28,14,48,34.70
2021,06,28,14,49,34.70
2021,06,28,14,50,34.70
2021,06,28,14,51,34.70
2021,06,28,14,52,34.70
2021,06,28,14,53,34.70
2021,06,28,14,54,34.70
2021,06,28,14,55,34.70
2021,06,28,14,56,34.70
2021,06,28,14,57,34.60
2021,06,28,14,58,34.60
2021,06,28,14,59,34.60
2021,06,28,15,00,34.60
2021,06,28,15,01,34.60
2021,06,28,15,02,34.70
2021,06,28,15,03,34.70
2021,06,28,15,04,34.70
2021,06,28,15,05,34.70
2021,06,28,15,06,34.70
2021,06,28,15,07,34.70
2021,06,28,15,08,34.80
2021,06,28,15,09,34.80
2021,06,28,15,10,34.90
2021,06,28,15,11,34.90
2021,06,28,15,12,34.90
2021,06,28,15,13,34.90
2021,06,28,15,14,34.90
2021,06,28,15,15,34.90
2021,06,28,15,16,34.90
2021,06,28,15,17,34.90
2021,06,28,15,18,34.90
2021,06,28,15,19,34.90
2021,06,28,15,20,34.90
2021,06,28,15,21,34.90
2021,06,28,15,22,34.90
2021,06,28,15,23,34.90
2021,06,28,15,24,35.00
2021,06,28,15,25,35.10
2021,06,28,15,26,35.10
2021,06,28,15,27,35.10
2021,06,28,15,28,35.20
2021,06,28,15,29,35.20
2021,06,28,15,30,35.20
2021,06,28,15,31,35.10
2021,06,28,15,32,35.10
2021,06,28,15,33,35.20
2021,06,28,15,34,35.20
2021,06,28,15,35,35.20
2021,06,28,15,36,35.20
2021,06,28,15,37,35.20
2021,06,28,15,38,35.20
2021,06,28,15,39,35.20
2021,06,28,15,40,35.10
2021,06,28,15,41,35.10
2021,06,28,15,42,35.10
2021,06,28,15,43,35.10
2021,06,28,15,44,35.20
2021,06,28,15,45,35.10
2021,06,28,15,46,35.10
2021,06,28,15,47,35.10
2021,06,28,15,48,35.10
2021,06,28,15,49,35.10
2021,06,28,15,50,35.10
2021,06,28,15,51,35.10
2021,06,28,15,52,35.10
2021,06,28,15,53,35.20
2021,06,28,15,54,35.20
2021,06,28,15,55,35.20
2021,06,28,15,56,35.30
2021,06,28,15,57,35.30
2021,06,28,15,58,35.30
2021,06,28,15,59,35.30
2021,06,28,16,00,35.30
2021,06,28,16,01,35.30
2021,06,28,16,02,35.30
2021,06,28,16,03,35.30
2021,06,28,16,04,35.30
2021,06,28,16,05,35.30
2021,06,28,16,06,35.30
2021,06,28,16,07,35.40
2021,06,28,16,08,35.50
2021,06,28,16,09,35.50
2021,06,28,16,10,35.50
2021,06,28,16,11,35.50
2021,06,28,16,12,35.50
2021,06,28,16,13,35.50
2021,06,28,16,14,35.50
2021,06,28,16,15,35.50
2021,06,28,16,16,35.50
2021,06,28,16,17,35.50
2021,06,28,16,18,35.60
2021,06,28,16,19,35.60
2021,06,28,16,20,35.60
2021,06,28,16,21,35.60
2021,06,28,16,22,35.60
2021,06,28,16,23,35.70
2021,06,28,16,24,35.70
2021,06,28,16,25,35.80
2021,06,28,16,26,35.90
2021,06,28,16,27,35.90
2021,06,28,16,28,36.00
2021,06,28,16,29,36.00
2021,06,28,16,30,36.10
2021,06,28,16,31,36.20
2021,06,28,16,32,36.20
2021,06,28,16,33,36.30
2021,06,28,16,34,36.30
2021,06,28,16,35,36.30
2021,06,28,16,36,36.20
2021,06,28,16,37,36.10
2021,06,28,16,38,36.00
2021,06,28,16,39,35.90
2021,06,28,16,40,35.70
2021,06,28,16,41,35.70
2021,06,28,16,42,35.70
2021,06,28,16,43,35.60
2021,06,28,16,44,35.60
2021,06,28,16,45,35.60
2021,06,28,16,46,35.60
2021,06,28,16,47,35.70
2021,06,28,16,48,35.70
2021,06,28,16,49,35.70
2021,06,28,16,50,35.70
2021,06,28,16,51,35.70
2021,06,28,16,52,35.70
2021,06,28,16,53,35.90
2021,06,28,16,54,35.90
2021,06,28,16,55,35.90
2021,06,28,16,56,35.90
2021,06,28,16,57,35.90
2021,06,28,16,58,35.90
2021,06,28,16,59,35.90
2021,06,28,17,00,35.90
2021,06,28,17,01,35.90
2021,06,28,17,02,35.90
2021,06,28,17,03,35.90
2021,06,28,17,04,35.90
2021,06,28,17,05,35.90
2021,06,28,17,06,36.00
2021,06,28,17,07,36.00
2021,06,28,17,08,36.00
2021,06,28,17,09,36.00
2021,06,28,17,10,36.10
2021,06,28,17,11,36.20
2021,06,28,17,12,36.20
2021,06,28,17,13,36.20
2021,06,28,17,14,36.30
2021,06,28,17,15,36.40
2021,06,28,17,16,36.40
2021,06,28,17,17,36.60
2021,06,28,17,18,36.60
2021,06,28,17,19,36.60